[[{"header":{"parameterUnit":"m.s-1","parameterCategory":1,"la1":30.2991,"la2":30.254,"lo1":-89.0895,"lo2":-89.0444,"dy":0.0017,"dx":0.0017,"nx":28,"ny":28,"refTime":"2024-06-23T21:00:00:Z","depth":0,"parameterNumber":2,"parameterNumberName":"U-component_of_WINDS"},"data":[0,0,0,0,0,0,0,0,0,0,0,0,0,0,0,0,0,0,0,0,0,0,0,0,0,0,0,0,0,0,0,0,0,0,0,0,0,0,0,0,0,0,0,0,0,0,0,0,0,0,0,0,0,0,0,0,0,0,3.7266,3.7267,0,3.7372,3.7373,3.7374,3.7325,3.7323,3.732,3.7318,3.7429,3.7434,3.744,0,0,0,0,0,0,0,0,0,0,0,0,0,3.7024,3.7029,3.7266,3.7267,3.7269,3.7372,3.7373,3.7374,3.7326,3.7323,3.7319,3.7316,3.7427,3.7434,3.744,0,0,0,0,0,0,0,0,0,0,0,0,0,3.713,3.703,3.7266,3.7257,3.7257,3.7371,3.7373,3.7375,3.7327,3.7323,3.7319,3.7315,3.7425,3.7433,3.7441,3.7571,0,0,3.7466,3.7469,0,0,0,0,0,0,0,0,3.7124,3.7138,3.7257,3.7258,3.7258,3.7331,3.7328,3.7441,3.7328,3.73,3.7317,3.7313,3.74,3.741,3.7439,3.7577,3.7581,3.7467,3.7472,3.7475,3.7477,0,0,0,0,0,0,0,3.7116,3.7134,3.7308,3.7258,3.7259,3.7248,3.7259,3.735,3.7371,3.7302,3.7299,3.7312,3.7399,3.7431,3.7441,3.7583,3.7466,3.7474,3.7479,3.7482,3.7833,3.7837,0,0,0,0,0,0,3.7109,3.7128,3.7305,3.7311,3.7179,3.7256,3.7267,3.7312,3.737,3.7375,3.7315,3.7309,3.7419,3.7431,3.7445,3.76,3.7475,3.7483,3.7487,3.7828,3.7834,3.7838,0,0,0,0,0,0,3.7104,3.7125,3.73,3.7219,3.724,3.7264,3.7314,3.7316,3.7347,3.738,3.7384,3.7343,3.7416,3.7433,3.754,3.7604,3.7486,3.7494,3.7823,3.783,3.7836,3.7914,0,0,0,0,0,0,3.7097,3.7124,3.7173,3.722,3.7245,3.7393,3.7318,3.7321,3.7361,3.7354,3.7407,3.7412,3.7414,3.7528,3.7548,3.7613,3.75,3.7818,3.7826,3.7834,3.7906,3.7922,3.7936,0,0,0,0,0,3.7089,3.7191,3.7176,3.7197,3.7307,3.7397,3.7411,3.7411,3.7366,3.7416,3.7437,3.741,3.7593,3.7539,3.7561,3.763,3.7814,3.7824,3.7833,3.7899,3.7919,3.7936,0,0,0,0,0,0,3.7153,3.7197,3.7181,3.7301,3.7346,3.7389,3.7452,3.7432,3.7491,3.7482,3.748,3.7493,3.7603,3.7627,3.7566,3.7759,3.7697,3.7712,3.7739,3.7758,3.7773,3.7765,3.7507,0,0,0,0,0,3.718,3.7249,3.7285,3.7389,3.7411,3.7428,3.7467,3.7463,3.7509,3.7528,3.7557,3.7603,3.7671,3.7716,3.7781,3.7909,3.792,3.7967,3.7982,3.7995,3.8008,3.8077,3.8098,3.7871,3.7871,3.7871,0,0,3.7239,3.7272,3.7316,3.7402,3.7436,3.7508,3.7444,3.7523,3.7577,3.754,3.7642,3.7665,3.7717,3.7835,3.7889,3.7859,3.8072,3.8007,3.8017,3.8023,3.8089,3.811,3.8129,3.7878,3.7877,3.7876,0,0,3.7383,3.7415,3.7504,3.7539,3.759,3.7601,3.7622,3.7668,3.7681,3.7784,3.7758,3.7822,3.7939,3.7977,3.8011,3.8169,3.8146,3.819,3.827,3.8338,3.8356,3.8371,3.8427,3.8447,3.8203,3.8203,3.8203,0,3.745,3.7557,3.7553,3.7634,3.7672,3.7641,3.7732,3.7766,3.7837,3.7864,3.7829,3.7975,3.8008,3.8134,3.8172,3.8201,3.8226,3.8184,3.8353,3.8369,3.8384,3.8437,3.8458,3.8208,3.8207,3.8207,3.8206,0,3.7636,3.771,3.7776,3.7844,3.789,3.7975,3.7985,3.8032,3.8024,3.8038,3.8142,3.818,3.8251,3.8281,3.8274,3.8406,3.8386,3.8352,3.829,3.841,3.846,3.848,3.8215,3.8213,3.8212,3.821,0,0,3.7824,3.7887,3.7911,3.7941,3.7995,3.8053,3.8137,3.8205,3.8246,3.8295,3.8366,3.8465,3.8434,3.8473,3.847,3.853,3.8651,3.8489,3.849,3.8517,3.8798,3.8823,3.8847,3.8636,3.864,3.8643,3.8794,0,3.7971,3.8117,3.8116,3.8251,3.8319,3.8291,3.8364,3.8405,3.8421,3.8481,3.8499,3.8569,3.8523,3.8546,3.8603,3.8624,3.8708,3.8613,3.8702,3.8705,3.869,3.8873,3.8899,3.9039,3.8813,3.8817,3.8819,0,3.8163,3.8217,3.8359,3.8402,3.8431,3.8496,3.8558,3.8617,3.8663,3.867,3.8714,3.8701,3.8787,3.8722,3.8841,3.8777,3.8813,3.8829,3.8834,3.8842,3.8769,3.8885,3.9084,3.9105,3.885,3.8847,3.8845,0,3.8285,3.8394,3.8492,3.8519,3.8572,3.8618,3.8643,3.8685,3.8726,3.8781,3.8807,3.8872,3.8907,3.8958,3.8963,3.8916,3.9082,3.9018,3.9091,3.9091,3.9127,3.9125,3.9334,3.9151,3.9151,3.9151,3.915,0,3.845,3.8538,3.8548,3.8609,3.8706,3.8704,3.88,3.8821,3.8858,3.8923,3.8903,3.8964,3.8967,3.903,3.9036,3.9132,3.9149,3.9157,3.9157,3.9159,3.9158,3.9182,3.9173,3.9156,3.9155,3.9154,3.9153,0,3.8603,3.8613,3.8719,3.876,3.8772,3.8842,3.8877,3.8935,3.8948,3.903,3.9049,3.9069,3.9142,3.9153,3.9239,3.9242,3.9358,3.9349,3.9342,3.9341,3.9412,3.9405,3.9645,3.9676,3.9473,3.9475,3.9477,0,3.8708,3.8774,3.8822,3.8863,3.8889,3.8956,3.8997,3.8997,3.9041,3.9098,3.915,3.922,3.9276,3.9394,3.9417,3.9483,3.9474,3.9554,3.9484,3.9483,3.9475,3.9471,3.9477,3.9567,3.9569,3.9571,3.9573,0,3.8892,3.8893,3.8953,3.9014,3.9063,3.9112,3.9158,3.9193,3.9199,3.925,3.9323,3.9366,3.9453,3.9523,3.9588,3.9614,3.9595,3.9594,3.9614,3.9616,3.961,3.9613,3.9378,3.9589,3.9587,3.9586,3.9585,3.9584,3.9024,3.9082,3.9123,3.919,3.9224,3.9267,3.9323,3.9342,3.9403,3.9472,3.9469,3.955,3.9594,3.9678,3.9709,3.9772,3.9746,3.9776,3.9783,3.979,3.9797,3.9599,3.9784,3.9784,3.9783,3.9783,3.9783,0,3.9207,3.9232,3.9293,3.9357,3.941,3.9385,3.9435,3.948,3.9551,3.9593,3.9649,3.9733,3.98,3.9828,3.9895,3.994,3.9933,3.9958,3.9954,3.996,3.9817,3.9792,3.9962,3.9962,3.9962,3.9962,3.9962,3.9962,3.9308,3.9404,3.941,3.9522,3.9547,3.9624,3.9654,3.9694,3.9727,3.9821,3.9877,3.9894,3.9931,3.9999,4.006,4.0067,4.0092,4.0121,4.0123,3.9989,3.9971,3.9953,3.993,4.0126,4.0126,4.0261,4.0263,4.0264]},{"header":{"parameterUnit":"m.s-1","parameterCategory":1,"la1":30.2991,"la2":30.254,"lo1":-89.0895,"lo2":-89.0444,"dy":0.0017,"dx":0.0017,"nx":28,"ny":28,"refTime":"2024-06-23T21:00:00:Z","depth":0,"parameterNumber":3,"parameterNumberName":"V-component_of_WINDS"},"data":[0,0,0,0,0,0,0,0,0,0,0,0,0,0,0,0,0,0,0,0,0,0,0,0,0,0,0,0,0,0,0,0,0,0,0,0,0,0,0,0,0,0,0,0,0,0,0,0,0,0,0,0,0,0,0,0,0,0,-0.5592,-0.5591,0,-0.5482,-0.5481,-0.5479,-0.5447,-0.5448,-0.5448,-0.5449,-0.5329,-0.5326,-0.5322,0,0,0,0,0,0,0,0,0,0,0,0,0,-0.5768,-0.5765,-0.5593,-0.5591,-0.559,-0.5482,-0.5481,-0.5479,-0.5447,-0.5448,-0.5448,-0.5449,-0.533,-0.5326,-0.5321,0,0,0,0,0,0,0,0,0,0,0,0,0,-0.5678,-0.5764,-0.5593,-0.5561,-0.5557,-0.5482,-0.548,-0.5479,-0.5447,-0.5448,-0.5449,-0.5449,-0.5332,-0.5326,-0.5321,-0.5268,0,0,-0.5304,-0.5301,0,0,0,0,0,0,0,0,-0.5683,-0.5672,-0.5567,-0.5563,-0.5558,-0.5479,-0.5499,-0.5408,-0.5447,-0.5488,-0.5449,-0.545,-0.5378,-0.5369,-0.5346,-0.5262,-0.5257,-0.5303,-0.53,-0.5297,-0.5296,0,0,0,0,0,0,0,-0.569,-0.5676,-0.5549,-0.5565,-0.556,-0.555,-0.5538,-0.5481,-0.5429,-0.5485,-0.5482,-0.547,-0.5376,-0.5351,-0.5343,-0.5255,-0.5303,-0.5298,-0.5295,-0.5293,-0.512,-0.5119,0,0,0,0,0,0,-0.5702,-0.5682,-0.5552,-0.5545,-0.5625,-0.5546,-0.5533,-0.5504,-0.543,-0.542,-0.5469,-0.5469,-0.536,-0.5349,-0.5338,-0.527,-0.5297,-0.5292,-0.5289,-0.5122,-0.512,-0.5119,0,0,0,0,0,0,-0.5706,-0.5691,-0.5556,-0.5613,-0.5595,-0.5542,-0.551,-0.5501,-0.5477,-0.5418,-0.5408,-0.5454,-0.5361,-0.5346,-0.5286,-0.5266,-0.529,-0.5284,-0.5123,-0.5121,-0.512,-0.5134,0,0,0,0,0,0,-0.5712,-0.5693,-0.5674,-0.5613,-0.5592,-0.5508,-0.5508,-0.5498,-0.5468,-0.5466,-0.5401,-0.5391,-0.536,-0.5294,-0.528,-0.5258,-0.528,-0.5125,-0.5122,-0.512,-0.5135,-0.5133,-0.5132,0,0,0,0,0,-0.5718,-0.5682,-0.5673,-0.5658,-0.5568,-0.5507,-0.5495,-0.5462,-0.5466,-0.5446,-0.5408,-0.5393,-0.527,-0.5288,-0.5272,-0.5248,-0.5126,-0.5123,-0.512,-0.5136,-0.5134,-0.5132,0,0,0,0,0,0,-0.574,-0.5673,-0.5663,-0.5606,-0.5563,-0.5502,-0.5475,-0.546,-0.5413,-0.5413,-0.5372,-0.5357,-0.5299,-0.5267,-0.5289,-0.5192,-0.5197,-0.5191,-0.5215,-0.5212,-0.521,-0.5219,-0.5275,0,0,0,0,0,-0.5739,-0.5697,-0.564,-0.5595,-0.5574,-0.5528,-0.5501,-0.5479,-0.5431,-0.5412,-0.537,-0.5322,-0.5272,-0.524,-0.5192,-0.5131,-0.5115,-0.5106,-0.5104,-0.5103,-0.5098,-0.5061,-0.5056,-0.511,-0.511,-0.511,0,0,-0.5735,-0.5693,-0.5669,-0.5599,-0.5563,-0.5518,-0.5513,-0.5467,-0.5432,-0.5404,-0.5345,-0.5312,-0.5256,-0.5194,-0.5165,-0.5166,-0.5079,-0.5099,-0.5099,-0.5094,-0.5058,-0.5053,-0.5048,-0.5108,-0.5109,-0.5109,0,0,-0.5705,-0.567,-0.5629,-0.5593,-0.5538,-0.5508,-0.5498,-0.5438,-0.5416,-0.5356,-0.5334,-0.5291,-0.5207,-0.5167,-0.5136,-0.509,-0.5074,-0.5075,-0.5064,-0.5029,-0.5025,-0.5021,-0.5003,-0.4997,-0.507,-0.507,-0.507,0,-0.5707,-0.5641,-0.5609,-0.5563,-0.5532,-0.5506,-0.5461,-0.5427,-0.5359,-0.5336,-0.5339,-0.5232,-0.5192,-0.5121,-0.5109,-0.5085,-0.5071,-0.5082,-0.5028,-0.5024,-0.502,-0.5002,-0.4995,-0.507,-0.507,-0.507,-0.507,0,-0.5645,-0.5599,-0.5572,-0.5508,-0.5474,-0.5429,-0.5387,-0.5355,-0.5336,-0.5305,-0.5242,-0.5194,-0.5134,-0.5115,-0.5095,-0.504,-0.5042,-0.5037,-0.5041,-0.5015,-0.4998,-0.4991,-0.5071,-0.5071,-0.5071,-0.507,0,0,-0.5627,-0.5545,-0.5536,-0.5506,-0.5443,-0.5406,-0.5359,-0.5302,-0.5275,-0.5228,-0.5186,-0.5115,-0.5109,-0.5074,-0.5049,-0.5018,-0.4983,-0.5016,-0.5014,-0.5011,-0.4916,-0.492,-0.4913,-0.4972,-0.4971,-0.4969,-0.4921,0,-0.5588,-0.5506,-0.5474,-0.5406,-0.5362,-0.5336,-0.5294,-0.525,-0.5219,-0.5175,-0.5139,-0.5089,-0.5087,-0.5065,-0.5033,-0.4994,-0.4963,-0.4997,-0.493,-0.4928,-0.4945,-0.4904,-0.4908,-0.4865,-0.4914,-0.4913,-0.4912,0,-0.5533,-0.5487,-0.5415,-0.5356,-0.5337,-0.53,-0.5245,-0.5204,-0.5152,-0.5131,-0.5092,-0.5068,-0.5015,-0.5023,-0.4948,-0.4972,-0.4942,-0.4918,-0.4916,-0.4908,-0.4918,-0.4894,-0.485,-0.4843,-0.4901,-0.4902,-0.4902,0,-0.5525,-0.5445,-0.5392,-0.5367,-0.5297,-0.5272,-0.5242,-0.5191,-0.5158,-0.5109,-0.5087,-0.5031,-0.5,-0.4956,-0.4918,-0.4928,-0.4845,-0.4851,-0.4825,-0.4825,-0.4808,-0.481,-0.4758,-0.4791,-0.4791,-0.4791,-0.4791,0,-0.5485,-0.5442,-0.5387,-0.5354,-0.5303,-0.5266,-0.5216,-0.5184,-0.5138,-0.5096,-0.5069,-0.503,-0.4982,-0.4935,-0.4904,-0.4846,-0.4832,-0.4812,-0.4804,-0.4814,-0.4816,-0.4794,-0.4795,-0.4789,-0.4789,-0.479,-0.479,0,-0.5469,-0.5431,-0.537,-0.5309,-0.5293,-0.5258,-0.5205,-0.517,-0.5138,-0.5084,-0.507,-0.5017,-0.4961,-0.4919,-0.4845,-0.4824,-0.4762,-0.4754,-0.478,-0.4776,-0.4752,-0.4754,-0.4683,-0.4671,-0.4713,-0.4712,-0.4712,0,-0.5446,-0.5412,-0.5348,-0.5319,-0.5289,-0.5242,-0.5209,-0.517,-0.5136,-0.5073,-0.5045,-0.4988,-0.494,-0.485,-0.4804,-0.4747,-0.4737,-0.4716,-0.4728,-0.4739,-0.4735,-0.4738,-0.4733,-0.4714,-0.4714,-0.4714,-0.4714,0,-0.5408,-0.5391,-0.5345,-0.5292,-0.5254,-0.521,-0.5165,-0.5142,-0.5094,-0.5057,-0.5,-0.4963,-0.4888,-0.4831,-0.4769,-0.4734,-0.4715,-0.471,-0.4701,-0.4711,-0.4727,-0.4717,-0.4775,-0.4712,-0.4712,-0.4712,-0.4713,-0.4713,-0.5387,-0.5355,-0.5305,-0.5254,-0.5216,-0.5175,-0.5139,-0.5102,-0.5055,-0.4993,-0.4971,-0.4912,-0.4858,-0.4774,-0.4739,-0.469,-0.469,-0.4677,-0.4673,-0.467,-0.4671,-0.4735,-0.4679,-0.4679,-0.4679,-0.4679,-0.4679,0,-0.5347,-0.5313,-0.5267,-0.5206,-0.5166,-0.5153,-0.5102,-0.5069,-0.5018,-0.497,-0.4924,-0.4857,-0.4801,-0.475,-0.4691,-0.4661,-0.4651,-0.4647,-0.4648,-0.464,-0.4675,-0.4689,-0.4656,-0.4656,-0.4656,-0.4656,-0.4656,-0.4656,-0.5322,-0.5267,-0.5243,-0.5168,-0.5134,-0.5077,-0.5049,-0.501,-0.4972,-0.4899,-0.4853,-0.4821,-0.4771,-0.4708,-0.4654,-0.4641,-0.4619,-0.4617,-0.4601,-0.4635,-0.4638,-0.4641,-0.4653,-0.4613,-0.4613,-0.457,-0.457,-0.4569]}]]